Weather History for Fort Leonard Wood, MO

Change the Weather History Date:

Saturday, January 5, 2013

  Actual Average Record
Temperature  
Mean Temperature 35 °F -  
Max Temperature 41 °F 40 °F 65 °F (2012)
Min Temperature 29 °F 27 °F 1 °F (1999)
Degree Days  
Heating Degree Days 30    
Moisture  
Dew Point 26 °F    
Average Humidity 66    
Maximum Humidity 84    
Minimum Humidity 55    
Precipitation  
Precipitation 0.00 in - - ()
Sea Level Pressure  
Sea Level Pressure 30.25 in    
Wind  
Wind Speed 5 mph (SW)    
Max Wind Speed 9 mph    
Max Gust Speed -    
Visibility 10 miles    
Events Rain    
Averages and records for this station are not official NWS values.
T = Trace of Precipitation, MM = Missing Value Source: NWS Daily Summary

Daily Weather History Graph

Daily Weather History Graph

Search for Another Location

Airport:

Trip Planner

Search our weather history database for the weather conditions in past years. The results will help you decide how hot, cold, wet, or windy it might be!

Date:

Astronomy

Jan. 05, 2013 Rise Set
Actual Time 7:24 AM CST 5:04 PM CST
Civil Twilight 6:55 AM CST 5:33 PM CST
Nautical Twilight 6:22 AM CST 6:06 PM CST
Astronomical Twilight 5:50 AM CST 6:37 PM CST
Moon 12:35 AM CST (1/5) 11:51 AM CST (1/5)
Length of Visible Light 10h 38m
Length of Day
9h 39m
Last Quarter, 44% of the Moon is Illuminated
Jan 5
Last Quarter
Jan 11
New
Jan 18
First Quarter
Jan 26
Full
Feb 3
Last Quarter

Hourly Weather History & Observations

Time (CST) Temp. Windchill Dew Point Humidity Pressure Visibility Wind Dir Wind Speed Gust Speed Precip Events Conditions
12:55 AM 31.8 °F 27.3 °F 21.7 °F 66% 30.31 in 10.0 mi SW 4.6 mph - N/A   Clear
1:55 AM 31.5 °F 26.8 °F 22.1 °F 68% 30.30 in 10.0 mi SSW 4.6 mph - N/A   Clear
2:55 AM 29.5 °F 24.5 °F 22.1 °F 74% 30.31 in 10.0 mi SSW 4.6 mph - N/A   Clear
3:55 AM 31.5 °F 25.8 °F 23.2 °F 71% 30.29 in 10.0 mi South 5.8 mph - N/A   Overcast
4:55 AM 31.6 °F 28.3 °F 22.6 °F 69% 30.29 in 10.0 mi SSW 3.5 mph - N/A   Overcast
5:55 AM 32.7 °F - 23.2 °F 68% 30.30 in 10.0 mi Calm Calm - N/A   Overcast
6:55 AM 34.0 °F 29.8 °F 22.5 °F 63% 30.30 in 10.0 mi SW 4.6 mph - N/A   Overcast
7:44 AM 33.8 °F 28.6 °F 23.0 °F 65% 30.31 in 10.0 mi WSW 5.8 mph - N/A Rain Light Rain
7:55 AM 34.5 °F 30.4 °F 22.6 °F 62% 30.31 in 10.0 mi WSW 4.6 mph - 0.00 in Rain Light Rain
7:56 AM 33.8 °F 29.6 °F 23.0 °F 65% 30.31 in 10.0 mi WSW 4.6 mph - N/A   Overcast
8:38 AM 35.6 °F 30.7 °F 23.0 °F 60% 30.32 in 10.0 mi Variable 5.8 mph - N/A Rain Light Rain
8:49 AM 35.6 °F 32.8 °F 23.0 °F 60% 30.32 in 10.0 mi SW 3.5 mph - N/A   Overcast
8:55 AM 36.0 °F 33.3 °F 23.2 °F 60% 30.32 in 10.0 mi Variable 3.5 mph - 0.00 in   Overcast
9:55 AM 39.2 °F 35.9 °F 24.8 °F 56% 30.30 in 10.0 mi SSW 4.6 mph - N/A   Overcast
10:55 AM 41.4 °F 36.8 °F 26.1 °F 55% 30.27 in 10.0 mi SSW 6.9 mph - N/A   Overcast
11:55 AM 41.4 °F 36.2 °F 27.9 °F 59% 30.24 in 10.0 mi SSW 8.1 mph - N/A   Overcast
12:55 PM 41.5 °F 36.4 °F 29.1 °F 61% 30.19 in 10.0 mi SW 8.1 mph - N/A   Overcast
1:55 PM 41.7 °F 36.1 °F 28.0 °F 58% 30.17 in 10.0 mi SW 9.2 mph - N/A   Overcast
2:55 PM 41.2 °F 36.6 °F 28.2 °F 60% 30.17 in 10.0 mi Variable 6.9 mph - N/A   Overcast
3:55 PM 41.4 °F 36.2 °F 28.2 °F 60% 30.17 in 10.0 mi SSW 8.1 mph - N/A   Overcast
4:55 PM 41.4 °F 37.6 °F 29.5 °F 63% 30.17 in 10.0 mi Variable 5.8 mph - N/A   Overcast
5:55 PM 41.0 °F 38.0 °F 30.6 °F 66% 30.18 in 10.0 mi SW 4.6 mph - N/A   Overcast
6:55 PM 41.0 °F 38.0 °F 31.3 °F 68% 30.18 in 10.0 mi Variable 4.6 mph - N/A   Overcast
7:55 PM 40.3 °F 35.5 °F 31.6 °F 71% 30.18 in 10.0 mi SW 6.9 mph - N/A   Overcast
8:55 PM 38.1 °F 33.7 °F 31.6 °F 77% 30.18 in 10.0 mi SW 5.8 mph - N/A   Clear
9:55 PM 36.3 °F 31.6 °F 31.5 °F 83% 30.18 in 10.0 mi SSW 5.8 mph - N/A   Partly Cloudy
10:55 PM 35.8 °F 29.4 °F 31.5 °F 84% 30.17 in 10.0 mi SW 8.1 mph - N/A   Clear
11:55 PM 36.5 °F 29.7 °F 31.6 °F 83% 30.16 in 10.0 mi WSW 9.2 mph - N/A   Clear